TimeEST,TemperatureF,Dew PointF,Humidity,Sea Level PressureIn,VisibilityMPH,Wind Direction,Wind SpeedMPH,Gust SpeedMPH,PrecipitationIn,Events,Conditions,WindDirDegrees,DateUTC
12:51 AM,35.1,32.0,89,30.29,10.0,SW,8.1,-,N/A,,Overcast,230,2012-12-02 05:51:00
2:51 AM,36.0,33.1,89,30.28,10.0,WSW,3.5,-,N/A,,Overcast,240,2012-12-02 07:51:00
4:51 AM,33.1,32.0,96,30.22,5.0,Calm,Calm,-,N/A,,Partly Cloudy,0,2012-12-02 09:51:00
7:02 AM,33.8,30.2,87,30.11,6.0,Calm,Calm,-,N/A,,Clear,0,2012-12-02 12:02:00
7:51 AM,33.1,30.9,92,30.17,7.0,Calm,Calm,-,N/A,,Clear,0,2012-12-02 12:51:00
8:51 AM,34.0,32.0,92,30.14,6.0,Calm,Calm,-,N/A,,Clear,0,2012-12-02 13:51:00
9:51 AM,37.9,35.1,89,30.11,10.0,Calm,Calm,-,N/A,,Scattered Clouds,0,2012-12-02 14:51:00
10:51 AM,42.1,36.0,79,30.06,10.0,WSW,6.9,-,N/A,,Mostly Cloudy,240,2012-12-02 15:51:00
11:51 AM,42.1,36.0,79,30.00,10.0,SSW,11.5,-,N/A,,Mostly Cloudy,210,2012-12-02 16:51:00
12:51 PM,45.0,37.0,74,29.96,10.0,SW,13.8,-,N/A,,Mostly Cloudy,220,2012-12-02 17:51:00
1:47 PM,42.8,37.4,81,29.90,7.0,SW,17.3,23.0,0.00,,Overcast,220,2012-12-02 18:47:00
1:51 PM,43.0,37.9,82,29.94,7.0,SW,16.1,23.0,0.00,Rain,Light Rain,220,2012-12-02 18:51:00
3:09 PM,42.8,39.2,87,29.88,5.0,SW,9.2,-,0.00,Rain,Light Rain,230,2012-12-02 20:09:00
3:29 PM,41.0,39.2,93,29.89,2.5,SW,11.5,-,0.03,Rain,Rain,230,2012-12-02 20:29:00
3:51 PM,41.0,39.0,93,29.92,3.0,SW,10.4,-,0.05,Rain,Light Rain,220,2012-12-02 20:51:00
4:07 PM,41.0,39.2,93,29.88,4.0,SW,11.5,-,0.03,Rain,Rain,220,2012-12-02 21:07:00
4:34 PM,41.0,39.2,93,29.88,4.0,SW,11.5,-,0.08,Rain,Rain,220,2012-12-02 21:34:00
4:51 PM,41.0,39.9,96,29.91,4.0,SW,8.1,-,0.12,Rain,Rain,220,2012-12-02 21:51:00
5:51 PM,42.1,39.9,92,29.91,5.0,SW,10.4,-,0.11,Rain,Rain,220,2012-12-02 22:51:00
6:51 PM,42.1,41.0,96,29.92,6.0,SW,9.2,-,0.07,Rain,Light Rain,220,2012-12-02 23:51:00
7:51 PM,43.0,42.1,97,29.92,4.0,WSW,9.2,-,0.05,Rain,Light Rain,240,2012-12-03 00:51:00
8:51 PM,43.0,42.1,97,29.94,2.5,SW,9.2,-,0.01,Rain,Light Rain,230,2012-12-03 01:51:00
9:01 PM,42.8,42.8,100,29.89,3.0,SW,8.1,-,0.00,Rain,Light Rain,230,2012-12-03 02:01:00
9:51 PM,43.0,43.0,100,29.93,3.0,SW,9.2,-,0.01,Rain,Light Rain,230,2012-12-03 02:51:00
10:20 PM,44.6,42.8,93,29.89,2.5,WSW,8.1,-,0.01,Rain,Light Rain,240,2012-12-03 03:20:00
10:33 PM,44.6,44.6,100,29.89,3.0,WSW,8.1,-,0.01,,Overcast,240,2012-12-03 03:33:00
10:51 PM,44.1,44.1,100,29.93,3.0,WSW,5.8,-,0.01,,Overcast,240,2012-12-03 03:51:00
11:51 PM,45.0,44.1,97,29.94,5.0,WSW,5.8,-,0.01,,Overcast,250,2012-12-03 04:51:00